Location: Izdebno
(52.6670°N, 16.2170°E)
Time: 03:50:48
(UTC+02:00)

Transit 2A - Pass Details

Date: 26 February 2024
Orbit: 596 x 956 km, 66.7° (Epoch: 21 April)

Event Time Altitude Azimuth Distance (km) Brightness Sun altitude
Rises 02:01:31 0° 320° (NW) 2,921 - -40.6°
Reaches altitude 10° 02:03:59 10° 332° (NNW) 2,050 - -40.4°
Maximum altitude 02:08:02 29° 33° (NNE) 1,244 - -40.0°
Drops below altitude 10° 02:12:23 10° 94° (E) 2,216 - -39.6°
Exits shadow 02:13:34 - 100° (E) 2,629 9.1 -39.5°
Sets 02:15:09 0° 105° (ESE) 3,203 9.5 -39.3°
